Previsão horária em Çay

Hoje, 3 Agosto, Terça-feira

Tempo Temperatura Precipitação Vento Pressão Humidade
00:00 +24°C° 0 mm 2 m/s 671 mmHg 30%
01:00 +23°C° 0 mm 2 m/s 671 mmHg 31%
02:00 +21°C° 0 mm 2 m/s 671 mmHg 32%
03:00 +21°C° 0 mm 2 m/s 671 mmHg 33%
04:00 +21°C° 0 mm 1 m/s 671 mmHg 33%
05:00 +21°C° 0 mm 1 m/s 671 mmHg 34%
06:00 +23°C° 0 mm 1 m/s 672 mmHg 30%
07:00 +25°C° 0 mm 1 m/s 673 mmHg 27%
08:00 +27°C° 0 mm 1 m/s 673 mmHg 24%
09:00 +29°C° 0 mm 2 m/s 673 mmHg 21%
10:00 +31°C° 0 mm 3 m/s 674 mmHg 19%
11:00 +34°C° 0 mm 3 m/s 674 mmHg 16%
12:00 +34°C° 0 mm 4 m/s 674 mmHg 15%
13:00 +35°C° 0 mm 4 m/s 673 mmHg 14%
14:00 +36°C° 0 mm 5 m/s 673 mmHg 13%
15:00 +36°C° 0 mm 5 m/s 673 mmHg 13%
16:00 +36°C° 0 mm 5 m/s 673 mmHg 13%
17:00 +36°C° 0 mm 5 m/s 673 mmHg 12%
18:00 +34°C° 0 mm 4 m/s 673 mmHg 15%
19:00 +32°C° 0 mm 4 m/s 672 mmHg 18%
20:00 +28°C° 0 mm 3 m/s 672 mmHg 22%
21:00 +27°C° 0 mm 3 m/s 673 mmHg 24%
22:00 +26°C° 0 mm 3 m/s 673 mmHg 27%
23:00 +25°C° 0 mm 2 m/s 673 mmHg 29%

Amanhã, 4 Agosto, Quarta-feira

Tempo Temperatura Precipitação Vento Pressão Humidade
00:00 +25°C° 0 mm 2 m/s 673 mmHg 31%
01:00 +24°C° 0 mm 2 m/s 673 mmHg 32%
02:00 +23°C° 0 mm 2 m/s 673 mmHg 34%
03:00 +23°C° 0 mm 1 m/s 673 mmHg 34%
04:00 +22°C° 0 mm 1 m/s 673 mmHg 35%
05:00 +22°C° 0 mm 1 m/s 673 mmHg 36%
06:00 +24°C° 0 mm 1 m/s 673 mmHg 33%
07:00 +26°C° 0 mm 1 m/s 674 mmHg 29%
08:00 +28°C° 0 mm 1 m/s 674 mmHg 25%
09:00 +30°C° 0 mm 1 m/s 674 mmHg 23%
10:00 +31°C° 0 mm 2 m/s 675 mmHg 20%
11:00 +34°C° 0 mm 2 m/s 675 mmHg 18%
12:00 +35°C° 0 mm 2 m/s 675 mmHg 17%
13:00 +35°C° 0 mm 3 m/s 674 mmHg 15%
14:00 +36°C° 0 mm 3 m/s 674 mmHg 14%
15:00 +36°C° 0 mm 3 m/s 674 mmHg 14%
16:00 +36°C° 0 mm 3 m/s 674 mmHg 14%
17:00 +36°C° 0 mm 3 m/s 674 mmHg 14%
18:00 +34°C° 0 mm 3 m/s 673 mmHg 17%
19:00 +31°C° 0 mm 3 m/s 673 mmHg 20%
20:00 +29°C° 0 mm 2 m/s 673 mmHg 23%
21:00 +28°C° 0 mm 2 m/s 673 mmHg 26%
22:00 +27°C° 0 mm 2 m/s 673 mmHg 29%
23:00 +27°C° 0 mm 3 m/s 673 mmHg 33%

Depois de amanhã, 5 Agosto, Quinta-feira

Tempo Temperatura Precipitação Vento Pressão Humidade
00:00 +26°C° 0 mm 2 m/s 673 mmHg 36%
01:00 +25°C° 0 mm 2 m/s 673 mmHg 38%
02:00 +24°C° 0 mm 2 m/s 672 mmHg 41%
03:00 +24°C° 0 mm 2 m/s 672 mmHg 43%
04:00 +23°C° 0 mm 2 m/s 672 mmHg 45%
05:00 +23°C° 0 mm 2 m/s 672 mmHg 47%
06:00 +25°C° 0 mm 2 m/s 673 mmHg 43%
07:00 +26°C° 0 mm 2 m/s 673 mmHg 38%
08:00 +28°C° 0 mm 2 m/s 673 mmHg 34%
09:00 +30°C° 0 mm 2 m/s 673 mmHg 31%
10:00 +31°C° 0 mm 2 m/s 673 mmHg 27%
11:00 +34°C° 0 mm 2 m/s 673 mmHg 24%
12:00 +35°C° 0 mm 2 m/s 673 mmHg 22%
13:00 +35°C° 0 mm 2 m/s 673 mmHg 21%
14:00 +36°C° 0 mm 2 m/s 672 mmHg 19%
15:00 +36°C° 0 mm 2 m/s 672 mmHg 19%
16:00 +36°C° 0 mm 2 m/s 671 mmHg 19%
17:00 +36°C° 0 mm 2 m/s 671 mmHg 19%
18:00 +34°C° 0.1 mm 2 m/s 671 mmHg 22%
19:00 +30°C° 0.1 mm 3 m/s 671 mmHg 26%
20:00 +28°C° 0.1 mm 3 m/s 670 mmHg 30%
21:00 +27°C° 0 mm 2 m/s 670 mmHg 32%
22:00 +26°C° 0 mm 1 m/s 670 mmHg 34%
23:00 +25°C° 0 mm 1 m/s 670 mmHg 35%

6 Agosto, Sexta-feira

Tempo Temperatura Precipitação Vento Pressão Humidade
00:00 +25°C° 0 mm 1 m/s 670 mmHg 35%
01:00 +25°C° 0 mm 1 m/s 669 mmHg 36%
02:00 +24°C° 0 mm 1 m/s 669 mmHg 36%
03:00 +24°C° 0 mm 1 m/s 669 mmHg 37%
04:00 +23°C° 0 mm 1 m/s 668 mmHg 37%
05:00 +23°C° 0 mm 1 m/s 668 mmHg 38%
06:00 +25°C° 0 mm 1 m/s 669 mmHg 33%
07:00 +27°C° 0 mm 1 m/s 669 mmHg 28%
08:00 +29°C° 0 mm 1 m/s 670 mmHg 23%
09:00 +31°C° 0 mm 1 m/s 670 mmHg 19%
10:00 +32°C° 0 mm 2 m/s 670 mmHg 16%
11:00 +35°C° 0 mm 2 m/s 670 mmHg 12%
12:00 +36°C° 0 mm 2 m/s 670 mmHg 12%
13:00 +36°C° 0 mm 2 m/s 669 mmHg 11%
14:00 +37°C° 0 mm 2 m/s 669 mmHg 10%
15:00 +37°C° 0 mm 2 m/s 669 mmHg 11%
16:00 +37°C° 0 mm 2 m/s 668 mmHg 11%
17:00 +36°C° 0 mm 1 m/s 668 mmHg 11%
18:00 +35°C° 0 mm 2 m/s 668 mmHg 13%
19:00 +32°C° 0 mm 2 m/s 667 mmHg 16%
20:00 +31°C° 0 mm 2 m/s 667 mmHg 19%
21:00 +29°C° 0 mm 2 m/s 667 mmHg 23%
22:00 +28°C° 0 mm 2 m/s 667 mmHg 27%
23:00 +26°C° 0 mm 1 m/s 667 mmHg 32%

7 Agosto, Sábado

Tempo Temperatura Precipitação Vento Pressão Humidade
00:00 +26°C° 0 mm 1 m/s 667 mmHg 33%
01:00 +25°C° 0 mm 1 m/s 667 mmHg 34%
02:00 +25°C° 0 mm 2 m/s 667 mmHg 35%
03:00 +25°C° 0 mm 2 m/s 666 mmHg 37%
04:00 +24°C° 0 mm 2 m/s 666 mmHg 38%
05:00 +24°C° 0 mm 2 m/s 666 mmHg 39%
06:00 +26°C° 0 mm 2 m/s 667 mmHg 35%
07:00 +28°C° 0 mm 1 m/s 667 mmHg 32%
08:00 +30°C° 0 mm 1 m/s 668 mmHg 28%
09:00 +31°C° 0 mm 3 m/s 668 mmHg 25%
10:00 +34°C° 0 mm 4 m/s 668 mmHg 21%
11:00 +35°C° 0 mm 5 m/s 668 mmHg 17%
12:00 +36°C° 0 mm 6 m/s 668 mmHg 16%
13:00 +36°C° 0 mm 6 m/s 668 mmHg 15%
14:00 +36°C° 0 mm 6 m/s 668 mmHg 15%
15:00 +34°C° 0 mm 7 m/s 668 mmHg 21%
16:00 +33°C° 0 mm 7 m/s 668 mmHg 27%
17:00 +30°C° 0 mm 7 m/s 668 mmHg 33%
18:00 +28°C° 0 mm 6 m/s 669 mmHg 41%
19:00 +26°C° 0 mm 5 m/s 669 mmHg 50%
20:00 +25°C° 0 mm 4 m/s 670 mmHg 58%
21:00 +23°C° 0 mm 4 m/s 670 mmHg 63%
22:00 +22°C° 0 mm 3 m/s 671 mmHg 68%
23:00 +21°C° 0 mm 2 m/s 671 mmHg 72%

8 Agosto, Domingo

Tempo Temperatura Precipitação Vento Pressão Humidade
00:00 +20°C° 0 mm 2 m/s 671 mmHg 75%
01:00 +19°C° 0 mm 2 m/s 671 mmHg 78%
02:00 +20°C° 0 mm 1 m/s 671 mmHg 81%
03:00 +19°C° 0 mm 1 m/s 671 mmHg 82%
04:00 +18°C° 0 mm 2 m/s 671 mmHg 84%
05:00 +17°C° 0 mm 2 m/s 671 mmHg 86%
06:00 +19°C° 0 mm 2 m/s 672 mmHg 77%
07:00 +20°C° 0 mm 2 m/s 672 mmHg 68%
08:00 +23°C° 0 mm 2 m/s 673 mmHg 59%
09:00 +25°C° 0 mm 2 m/s 673 mmHg 50%
10:00 +26°C° 0 mm 2 m/s 674 mmHg 41%
11:00 +28°C° 0 mm 3 m/s 674 mmHg 33%
12:00 +29°C° 0 mm 3 m/s 674 mmHg 30%
13:00 +30°C° 0 mm 3 m/s 674 mmHg 26%
14:00 +32°C° 0 mm 4 m/s 674 mmHg 23%
15:00 +32°C° 0 mm 4 m/s 674 mmHg 23%
16:00 +32°C° 0 mm 4 m/s 674 mmHg 22%
17:00 +32°C° 0 mm 4 m/s 674 mmHg 22%
18:00 +29°C° 0 mm 4 m/s 674 mmHg 26%
19:00 +27°C° 0 mm 4 m/s 674 mmHg 29%
20:00 +25°C° 0 mm 3 m/s 674 mmHg 33%
21:00 +24°C° 0 mm 3 m/s 674 mmHg 37%
22:00 +23°C° 0 mm 2 m/s 674 mmHg 42%
23:00 +21°C° 0 mm 2 m/s 674 mmHg 46%
Mostrar mais

Necessitamos do seu Consentimento

A Meteoprog e os seus Fornecedores de Serviços podem armazenar e aceder a dados pessoais como cookies, identificadores do dispositivo ou outras tecnologias semelhantes existentes no seu dispositivo e processar estes dados para personalizar conteúdos e anúncios, assim como funcionalidades nas redes sociais e análise de tráfego.

  • Armazenar e/ou aceder a informações no seu dispositivo

    Os cookies, identificadores do dispositivo ou outras informações podem ser armazenados ou acedidos no seu dispositivo, para os fins acima indicados.

  • Anúncios e conteúdos personalizados, medição de anúncios e conteúdos, dados sobre o público-alvo e desenvolvimento de produtos

    Os anúncios e os conteúdos podem ser personalizados com base num perfil. Podem ser adicionados dados adicionais para uma maior personalização dos anúncios e dos conteúdos. A eficácia dos anúncios e dos conteúdos pode ser medida. Podem ser obtidas informações sobre o público que visualizou os anúncios e os conteúdos. Estes dados podem ser usados para desenvolver ou melhorar sistemas, softwares ou a experiência do utilizador.

Ao clicar em "Eu concordo”, permitirá o uso de cookies, identificadores do dispositivo e web beacons mencionados ou outras tecnologias semelhantes. As configurações do navegador do seu dispositivo podem ser alteradas.

Para certos fins, podem ser invocados interesses legítimos ao invés de consentimento. Pode ler mais informação sobre este assunto na nossa Política de Privacidade e Cookies.